Location: Arthurs Seat
(13.1500°N, 59.6000°W)
Time: 02:45:44
(UTC+00:00)

Cosmos 1602 - Pass Details

Date: 25 August 2019
Orbit: 515 x 534 km, 82.5° (Epoch: 22 October)

Event Time Altitude Azimuth Distance (km) Brightness Sun altitude
Rises 23:14:49 0° 192° (SSW) 2,628 7.3 -15.3°
Reaches altitude 10° 23:16:59 10° 196° (SSW) 1,739 6.4 -15.8°
Maximum altitude 23:20:43 56° 274° (W) 618 4.4 -16.7°
Drops below altitude 10° 23:24:27 10° 354° (N) 1,735 6.6 -17.5°
Sets 23:26:37 0° 358° (N) 2,621 7.5 -18.0°
